| time (UTC) | temp F | wind direction | speed MPH | gust MPH | rain 1hr in | rain 24hr in | rain mn in | humidity % | barometer mb |
| 20260504020106 | 80 | 191 | 3.0 | 6.0 | 0.00 | 0.16 | 0.16 | 95 | 1009.7 |
| 20260504014557 | 80 | 198 | 4.0 | 7.0 | 0.00 | 0.16 | 0.16 | 94 | 1009.6 |
| 20260504013105 | 80 | 219 | 3.0 | 6.0 | 0.00 | 0.16 | 0.16 | 94 | 1009.4 |
| 20260504011559 | 80 | 198 | 1.0 | 5.0 | 0.00 | 0.16 | 0.16 | 94 | 1009.4 |
| 20260504010105 | 80 | 224 | 0.0 | 0.0 | 0.00 | 0.16 | 0.16 | 94 | 1009.1 |
| 20260504004557 | 80 | 220 | 0.0 | 4.0 | 0.00 | 0.16 | 0.16 | 93 | 1009.1 |
| 20260504003054 | 80 | 158 | 0.0 | 5.0 | 0.00 | 0.16 | 0.16 | 92 | 1008.9 |
| 20260504001609 | 81 | 160 | 1.0 | 7.0 | 0.00 | 0.16 | 0.16 | 92 | 1008.5 |
| 20260504000058 | 81 | 185 | 3.0 | 7.0 | 0.00 | 0.16 | 0.16 | 92 | 1008.5 |
| 20260503234552 | 82 | 167 | 3.0 | 6.0 | 0.00 | 0.16 | 0.16 | 90 | 1008.4 |
| 20260503233052 | 82 | 195 | 2.0 | 0.0 | 0.00 | 0.00 | 0.16 | 88 | 1008.3 |
| 20260503231554 | 82 | 168 | 2.0 | 6.0 | 0.00 | 0.16 | 0.16 | 87 | 1008.2 |
| 20260503230051 | 82 | 146 | 1.0 | 7.0 | 0.00 | 0.16 | 0.16 | 88 | 1008.1 |
| 20260503224552 | 83 | 212 | 2.0 | 7.0 | 0.00 | 0.16 | 0.16 | 88 | 1008.1 |
| 20260503223049 | 83 | 209 | 3.0 | 8.0 | 0.00 | 0.16 | 0.16 | 87 | 1008.0 |
| 20260503221547 | 83 | 210 | 5.0 | 8.0 | 0.00 | 0.16 | 0.16 | 87 | 1008.1 |
| 20260503220046 | 83 | 163 | 5.0 | 8.0 | 0.00 | 0.16 | 0.16 | 86 | 1008.2 |
| 20260503214554 | 82 | 187 | 5.0 | 9.0 | 0.00 | 0.16 | 0.16 | 86 | 1008.3 |
| 20260503213109 | 82 | 195 | 4.0 | 9.0 | 0.00 | 0.16 | 0.16 | 86 | 1008.4 |
| 20260503211602 | 83 | 195 | 5.0 | 8.0 | 0.00 | 0.16 | 0.16 | 86 | 1008.5 |
| 20260503210041 | 83 | 198 | 6.0 | 9.0 | 0.00 | 0.16 | 0.16 | 85 | 1008.5 |
| 20260503204557 | 83 | 216 | 4.0 | 10.0 | 0.00 | 0.16 | 0.16 | 87 | 1008.6 |
| 20260503203040 | 84 | 144 | 4.0 | 9.0 | 0.00 | 0.16 | 0.16 | 86 | 1008.8 |
| 20260503201536 | 83 | 205 | 5.0 | 9.0 | 0.00 | 0.16 | 0.16 | 86 | 1009.1 |
| 20260503200033 | 84 | 169 | 5.0 | 9.0 | 0.00 | 0.16 | 0.16 | 86 | 1009.3 |
| 20260503194530 | 83 | 196 | 3.0 | 8.0 | 0.00 | 0.16 | 0.16 | 85 | 1009.5 |
| 20260503193029 | 84 | 176 | 6.0 | 10.0 | 0.00 | 0.16 | 0.16 | 85 | 1009.8 |
| 20260503191525 | 84 | 146 | 4.0 | 10.0 | 0.00 | 0.16 | 0.16 | 84 | 1010.1 |
| 20260503190022 | 83 | 173 | 3.0 | 7.0 | 0.00 | 0.16 | 0.16 | 86 | 1010.5 |
| 20260503184527 | 84 | 152 | 4.0 | 8.0 | 0.00 | 0.16 | 0.16 | 88 | 1010.8 |
| 20260503183021 | 83 | 148 | 3.0 | 9.0 | 0.00 | 0.16 | 0.16 | 89 | 1011.2 |
| 20260503181518 | 83 | 158 | 4.0 | 7.0 | 0.00 | 0.16 | 0.16 | 89 | 1011.4 |
| 20260503180026 | 83 | 114 | 3.0 | 6.0 | 0.00 | 0.16 | 0.16 | 88 | 1011.6 |
| 20260503174521 | 83 | 186 | 3.0 | 9.0 | 0.00 | 0.16 | 0.16 | 90 | 1011.8 |
| 20260503173016 | 82 | 202 | 4.0 | 8.0 | 0.00 | 0.16 | 0.16 | 91 | 1012.2 |
| 20260503171518 | 82 | 184 | 4.0 | 9.0 | 0.00 | 0.16 | 0.16 | 91 | 1012.3 |
| 20260503150107 | 78 | 158 | 3.0 | 6.0 | 0.00 | 0.16 | 0.16 | 100 | 1013.1 |